EA1AHA-13 Weather Reports


time (UTC)temp
C
wind
direction
speed
KPH
gust
KPH
rain 1hr
cm
rain 24hr
cm
rain mn
cm
humidity
%
barometer
mb
20260509105140 18 0.0 0.0 0.00 0.30 0.00 73 1005.1
20260509104116 18 0.0 0.0 0.00 0.30 0.00 73 1005.2
20260509103140 18 0.0 0.0 0.00 0.30 0.00 72 1005.1
20260509102116 18 0.0 0.0 0.00 0.30 0.00 72 1005.3
20260509101140 18 0.0 0.0 0.00 0.30 0.00 71 1005.2
20260509100117 17 0.0 0.0 0.00 0.30 0.00 76 1005.4
20260509095140 16 0.0 0.0 0.00 0.30 0.00 81 1005.5
20260509094117 15 0.0 0.0 0.00 0.30 0.00 82 1005.4
20260509093140 15 0.0 0.0 0.00 0.30 0.00 81 1005.4
20260509092116 15 0.0 0.0 0.00 0.30 0.00 81 1005.6
20260509091140 15 0.0 0.0 0.00 0.30 0.00 82 1005.5
20260509090116 15 0.0 0.0 0.00 0.30 0.00 81 1005.4
20260509085140 15 0.0 0.0 0.00 0.30 0.00 79 1005.2
20260509084116 14 0.0 0.0 0.00 0.30 0.00 81 1005.4
20260509083140 13 0.0 0.0 0.00 0.30 0.00 87 1005.6
20260509082117 13 0.0 0.0 0.00 0.30 0.00 90 1005.6
20260509081140 12 0.0 0.0 0.00 0.30 0.00 90 1005.5
20260509080117 12 0.0 0.0 0.00 0.30 0.00 89 1005.5
20260509075140 12 0.0 0.0 0.00 0.30 0.00 89 1005.5
20260509074116 12 0.0 0.0 0.00 0.30 0.00 89 1005.6
20260509073140 11 0.0 0.0 0.00 0.30 0.00 92 1005.6
20260509072116 11 0.0 0.0 0.00 0.30 0.00 93 1005.5
20260509071140 11 0.0 0.0 0.00 0.30 0.00 93 1005.5
20260509070117 11 0.0 0.0 0.00 0.30 0.00 94 1005.7
20260509065140 11 0.0 0.0 0.00 0.30 0.00 94 1005.7
20260509064116 11 0.0 0.0 0.00 0.30 0.00 95 1005.7
20260509063141 11 0.0 0.0 0.00 0.30 0.00 95 1006.0
20260509062116 11 0.0 0.0 0.00 0.30 0.00 95 1005.8
20260509061141 10 0.0 0.0 0.00 0.30 0.00 95 1005.6
20260509060116 10 0.0 0.0 0.00 0.30 0.00 96 1005.6
20260509055140 10 0.0 0.0 0.00 0.30 0.00 96 1005.6
20260509054117 10 0.0 0.0 0.00 0.30 0.00 96 1005.7
20260509053140 10 0.0 0.0 0.00 0.30 0.00 95 1005.8
20260509052117 10 0.0 0.0 0.00 0.30 0.00 95 1005.4
20260509051140 10 0.0 0.0 0.00 0.30 0.00 95 1005.7
20260509050116 10 0.0 0.0 0.00 0.30 0.00 95 1005.6
20260509045140 10 0.0 0.0 0.00 0.30 0.00 95 1005.4
20260509044117 10 0.0 0.0 0.00 0.30 0.00 95 1005.6
20260509043140 10 0.0 0.0 0.00 0.30 0.00 94 1005.6
20260509042117 10 0.0 0.0 0.00 0.30 0.00 94 1005.5
20260509041140 11 0.0 0.0 0.00 0.30 0.00 94 1005.6
20260509040117 10 0.0 0.0 0.00 0.30 0.00 94 1005.5
20260509035140 10 0.0 0.0 0.00 0.30 0.00 94 1005.7
20260509034116 10 0.0 0.0 0.00 0.30 0.00 94 1006.0
20260509033140 10 0.0 0.0 0.00 0.30 0.00 94 1005.9
20260509032117 11 0.0 0.0 0.00 0.30 0.00 94 1006.1
20260509031140 11 0.0 0.0 0.00 0.30 0.00 94 1006.0
20260509030116 11 0.0 0.0 0.00 0.30 0.00 94 1006.0
20260509025140 11 0.0 0.0 0.00 0.30 0.00 94 1006.0
20260509024116 11 0.0 0.0 0.00 0.30 0.00 94 1006.2
20260509023140 11 0.0 0.0 0.00 0.30 0.00 94 1006.2
20260509022117 11 0.0 0.0 0.00 0.30 0.00 95 1006.2
20260509021140 11 0.0 0.0 0.00 0.30 0.00 95 1006.7
20260509020117 11 0.0 0.0 0.00 0.30 0.00 95 1006.9
20260509015140 11 0.0 0.0 0.00 0.30 0.00 95 1006.9
20260509014117 10 0.0 0.0 0.00 0.30 0.00 96 1007.2
20260509013140 10 0.0 0.0 0.00 0.30 0.00 96 1007.2
20260509012116 10 0.0 0.0 0.00 0.30 0.00 96 1007.3
20260509011141 10 0.0 0.0 0.00 0.30 0.00 97 1007.4
20260509010116 10 0.0 0.0 0.00 0.30 0.00 97 1007.3
20260509005140 9 0.0 0.0 0.00 0.30 0.00 97 1007.3
20260509004117 10 0.0 0.0 0.00 0.30 0.00 97 1007.4
20260509003140 10 0.0 0.0 0.00 0.30 0.00 97 1007.7
20260509002117 9 0.0 0.0 0.00 0.30 0.00 97 1007.7
20260509001140 9 0.0 0.0 0.00 0.30 0.00 97 1007.8
20260509000117 9 0.0 0.0 0.00 0.30 0.00 97 1008.0
20260508235140 9 0.0 0.0 0.00 0.30 0.00 96 1008.1
20260508234116 10 0.0 0.0 0.00 0.30 0.00 96 1008.2
20260508233141 10 0.0 0.0 0.00 0.30 0.00 96 1008.0
20260508232117 10 0.0 0.0 0.00 0.30 0.00 96 1008.4
20260508231141 10 0.0 0.0 0.00 0.30 0.00 96 1008.6
20260508230117 10 0.0 0.0 0.00 0.30 0.00 96 1008.5
20260508225140 10 0.0 0.0 0.00 0.30 0.00 96 1008.5
20260508224117 10 0.0 0.0 0.00 0.30 0.00 96 1008.5
20260508223140 10 0.0 0.0 0.00 0.30 0.00 95 1008.3
20260508222116 10 0.0 0.0 0.00 0.30 0.00 95 1008.8
20260508221140 10 0.0 0.0 0.00 0.30 0.00 95 1008.7
20260508220116 10 0.0 0.0 0.00 0.30 0.30 95 1008.8
20260508215140 10 0.0 0.0 0.00 0.30 0.30 95 1008.8
20260508214116 10 0.0 0.0 0.00 0.30 0.30 94 1008.8
20260508213140 10 0.0 0.0 0.00 0.30 0.30 94 1009.0
20260508212116 10 0.0 0.0 0.00 0.30 0.30 93 1009.3
20260508211140 11 0.0 0.0 0.00 0.30 0.30 93 1009.3
20260508210117 11 0.0 0.0 0.00 0.30 0.30 93 1009.1
20260508205141 11 0.0 0.0 0.00 0.30 0.30 92 1009.4
20260508204117 11 0.0 0.0 0.00 0.30 0.30 93 1009.3
20260508203140 12 0.0 0.0 0.00 0.30 0.30 93 1009.2
20260508202116 12 0.0 0.0 0.00 0.30 0.30 91 1009.1
20260508201140 12 0.0 0.0 0.00 0.30 0.30 90 1009.0
20260508200118 12 0.0 0.0 0.00 0.30 0.30 90 1009.2
20260508195141 12 0.0 0.0 0.00 0.30 0.30 90 1009.1
20260508194117 12 0.0 0.0 0.00 0.30 0.30 90 1009.3
20260508193141 12 0.0 0.0 0.00 0.30 0.30 90 1008.9
20260508192116 12 0.0 0.0 0.00 0.30 0.30 90 1008.9
20260508191140 12 0.0 0.0 0.00 0.30 0.30 91 1008.9
20260508190117 12 0.0 0.0 0.00 0.30 0.30 92 1008.6
20260508185140 12 0.0 0.0 0.00 0.30 0.30 94 1008.7
20260508184116 13 0.0 0.0 0.00 0.30 0.30 94 1008.4
20260508183140 13 0.0 0.0 0.00 0.30 0.30 93 1008.4
20260508182116 13 0.0 0.0 0.00 0.30 0.30 94 1008.0
20260508181140 13 0.0 0.0 0.00 0.30 0.30 94 1008.0
20260508180116 13 0.0 0.0 0.00 0.30 0.30 94 1007.9
20260508175140 13 0.0 0.0 0.00 0.30 0.30 94 1007.5
20260508174117 13 0.0 0.0 0.03 0.30 0.30 93 1007.6
20260508173140 13 0.0 0.0 0.05 0.30 0.30 93 1007.8
20260508172117 13 0.0 0.0 0.13 0.30 0.30 93 1007.8
20260508171140 13 0.0 0.0 0.18 0.30 0.30 93 1007.6
20260508170116 13 0.0 0.0 0.20 0.30 0.30 94 1007.6
20260508165140 13 0.0 0.0 0.20 0.30 0.30 94 1007.7
20260508164117 13 0.0 0.0 0.18 0.28 0.28 93 1007.5
20260508163140 14 0.0 0.0 0.13 0.25 0.25 92 1007.6
20260508162116 14 0.0 0.0 0.05 0.18 0.18 90 1007.6
20260508161141 14 0.0 0.0 0.03 0.13 0.13 89 1007.4
20260508160117 15 0.0 0.0 0.00 0.10 0.10 87 1007.3
20260508155140 16 0.0 0.0 0.00 0.10 0.10 83 1007.2
20260508154117 16 0.0 0.0 0.00 0.10 0.10 83 1006.9
20260508153140 16 0.0 0.0 0.00 0.10 0.10 83 1007.2
20260508152117 16 0.0 0.0 0.00 0.10 0.10 83 1006.7
20260508151140 16 0.0 0.0 0.00 0.10 0.10 83 1006.7
20260508150117 16 0.0 0.0 0.00 0.10 0.10 84 1006.7
20260508145140 16 0.0 0.0 0.00 0.10 0.10 84 1006.7
20260508144117 16 0.0 0.0 0.00 0.10 0.10 85 1006.8
20260508143140 15 0.0 0.0 0.00 0.10 0.10 87 1006.5
20260508142117 15 0.0 0.0 0.00 0.10 0.10 87 1007.1
20260508141141 15 0.0 0.0 0.00 0.10 0.10 88 1006.9
20260508140117 15 0.0 0.0 0.00 0.10 0.10 88 1006.9
20260508135141 15 0.0 0.0 0.00 0.10 0.10 88 1007.1
20260508134117 15 0.0 0.0 0.03 0.10 0.10 89 1007.2
20260508133140 14 0.0 0.0 0.05 0.10 0.10 91 1007.2
20260508132117 14 0.0 0.0 0.08 0.10 0.10 92 1007.5
20260508131140 13 0.0 0.0 0.08 0.10 0.10 93 1007.5
20260508130117 13 0.0 0.0 0.08 0.10 0.10 94 1007.6
20260508125140 13 0.0 0.0 0.08 0.10 0.10 94 1008.0
20260508124116 13 0.0 0.0 0.05 0.08 0.08 93 1008.4
20260508123140 13 0.0 0.0 0.03 0.05 0.05 93 1008.7
20260508122116 13 0.0 0.0 0.00 0.03 0.03 92 1008.4
20260508121140 13 0.0 0.0 0.03 0.03 0.03 92 1008.4
20260508120117 13 0.0 0.0 0.03 0.03 0.03 92 1008.5
20260508115140 13 0.0 0.0 0.03 0.03 0.03 92 1008.1
20260508114117 14 0.0 0.0 0.03 0.03 0.03 91 1008.0
20260508113140 14 0.0 0.0 0.03 0.03 0.03 90 1008.0
20260508112116 15 0.0 0.0 0.03 0.03 0.03 89 1007.9
20260508111140 15 0.0 0.0 0.00 0.00 0.00 89 1007.8
20260508105811 15 0.0 0.0 0.00 0.00 0.00 88 1007.8